148P/Anderson-LINEAR (2001)

Japanese version
Home page
Updated on May 5, 2012

---------------------------------------------------------------------

* Profile

Designation 148P/2000 SO253
Rediscovery Date September 24, 2000
Magnitude 19.8 mag
Rediscoverer Lincoln Laboratory Near-Earth Asteroid Research project

* Orbital Elements

Epoch 2001 May 11.0 TT = JDT 2452040.5
T 2001 May 1.96281 TT                                   MPC
q   1.6937550            (2000.0)            P               Q
n   0.13975037     Peri.    6.71192     -0.11326004     -0.99148750
a   3.6776247      Node    89.80527     +0.90856654     -0.12951365
e   0.5394432      Incl.    3.68231     +0.40209328     +0.01336969
P   7.05
From 108 observations 1963 Nov. 22-2008 Mar. 23, mean residual 0".7.
     Nongravitational parameters A1 = +0.33, A2 = -0.0028.

* Finding Charts

* Magnitudes Graph

        m1 = 14.0 + 5 log d + 10.0 log r

---------------------------------------------------------------------

The orbital elements are published on M.P.E.C. 2012-J16.
The charts are made with StellaNavigator Ver.2.0 for Windows (AstroArts / ASCII).
The magnitudes graphs are made with Comet for Windows.

---------------------------------------------------------------------

Copyright(C) Seiichi Yoshida (comet@aerith.net). All rights reserved.